Location: Pedholt
(56.0260°N, 10.2097°E)
Time: 03:36:46
(UTC+00:00)

Transit 2A Rocket - Pass Details

Date: 02 August 2021
Orbit: 586 x 916 km, 66.7° (Epoch: 21 September)

Event Time Altitude Azimuth Distance (km) Brightness Sun altitude
Rises 16:35:10 0° 278° (W) 2,996 9.6 21.5°
Reaches altitude 10° 16:37:43 10° 291° (WNW) 2,136 8.9 21.1°
Maximum altitude 16:41:51 27° 349° (N) 1,384 6.7 20.6°
Drops below altitude 10° 16:46:20 10° 47° (NE) 2,325 7.2 19.9°
Sets 16:49:13 0° 59° (ENE) 3,317 7.8 19.5°
